GW4852 Weather Reports


time (UTC)temp
F
wind
direction
speed
knots
gust
knots
rain 1hr
in
rain 24hr
in
rain mn
in
humidity
%
barometer
mb
20260507185249 64 298 3.5 3.5 0.00 0.00 0.00 40 1009.7
20260507184747 65 274 0.9 3.5 0.00 0.00 0.00 38 1009.9
20260507184245 66 242 3.5 3.5 0.00 0.00 0.00 37 1009.7
20260507183741 65 258 2.6 9.6 0.00 0.00 0.00 37 1009.8
20260507183238 66 295 6.1 7.8 0.00 0.00 0.00 40 1009.9
20260507182736 65 284 1.7 6.1 0.00 0.00 0.00 37 1009.8
20260507182235 64 267 3.5 7.8 0.00 0.00 0.00 39 1009.8
20260507181733 65 353 4.3 7.8 0.00 0.00 0.00 46 1009.8
20260507181229 64 316 5.2 8.7 0.00 0.00 0.00 39 1009.9
20260507180726 65 243 3.5 5.2 0.00 0.00 0.00 37 1010.0
20260507180223 63 92 4.3 7.0 0.00 0.00 0.00 37 1010.0
20260507175718 65 290 7.0 9.6 0.00 0.00 0.00 38 1010.1
20260507175215 64 335 1.7 3.5 0.00 0.00 0.00 37 1010.3
20260507174713 66 295 3.5 3.5 0.00 0.00 0.00 40 1010.4
20260507174211 66 15 0.9 3.5 0.00 0.00 0.00 43 1010.5
20260507173708 64 104 0.9 1.7 0.00 0.00 0.00 41 1010.6
20260507173205 63 278 4.3 6.1 0.00 0.00 0.00 43 1010.6
20260507172701 65 229 2.6 5.2 0.00 0.00 0.00 42 1010.9
20260507172158 63 271 2.6 3.5 0.00 0.00 0.00 42 1010.8
20260507171658 62 323 0.9 1.7 0.00 0.00 0.00 41 1011.0
20260507171156 63 334 0.0 1.7 0.00 0.00 0.00 39 1011.3
20260507170653 63 252 1.7 5.2 0.00 0.00 0.00 44 1011.3
20260507170150 64 255 0.9 1.7 0.00 0.00 0.00 38 1011.5
20260507165645 62 313 6.1 9.6 0.00 0.00 0.00 42 1011.7
20260507165142 61 33 1.7 3.5 0.00 0.00 0.00 44 1011.6
20260507164637 62 328 6.1 8.7 0.00 0.00 0.00 43 1011.9
20260507164135 62 283 1.7 5.2 0.00 0.00 0.00 44 1011.8
20260507163632 63 228 0.9 1.7 0.00 0.00 0.00 43 1011.9
20260507163130 62 222 0.9 2.6 0.00 0.00 0.00 45 1011.8
20260507162626 61 203 2.6 5.2 0.00 0.00 0.00 45 1011.8
20260507162122 62 234 4.3 6.1 0.00 0.00 0.00 43 1012.0
20260507161618 60 292 2.6 6.1 0.00 0.00 0.00 44 1012.0
20260507161115 62 268 0.9 6.1 0.00 0.00 0.00 43 1012.0
20260507160612 60 273 0.9 1.7 0.00 0.00 0.00 53 1012.2
20260507160108 60 263 2.6 3.5 0.00 0.00 0.00 43 1012.5
20260507155603 59 211 3.5 5.2 0.00 0.00 0.00 46 1012.4
20260507155100 59 317 3.5 7.0 0.00 0.00 0.00 46 1012.5
20260507154557 58 266 1.7 6.1 0.00 0.00 0.00 49 1012.5
20260507154054 59 157 0.9 1.7 0.00 0.00 0.00 45 1012.5
20260507153551 58 264 2.6 3.5 0.00 0.00 0.00 53 1012.7
20260507153047 58 12 4.3 6.1 0.00 0.00 0.00 50 1012.5
20260507152543 59 245 0.0 2.6 0.00 0.00 0.00 47 1012.8
20260507152040 58 319 2.6 5.2 0.00 0.00 0.00 52 1012.7
20260507151536 58 333 1.7 3.5 0.00 0.00 0.00 47 1012.8
20260507151033 57 243 0.9 2.6 0.00 0.00 0.00 48 1012.9
20260507150530 56 308 4.3 7.0 0.00 0.00 0.00 49 1013.1
20260507150027 57 267 1.7 3.5 0.00 0.00 0.00 46 1013.1
20260507145521 57 272 3.5 7.8 0.00 0.00 0.00 49 1013.3
20260507145020 57 313 2.6 3.5 0.00 0.00 0.00 56 1013.2
20260507144516 56 291 6.1 7.0 0.00 0.00 0.00 49 1013.3
20260507144014 56 306 2.6 5.2 0.00 0.00 0.00 50 1013.5
20260507143511 57 220 2.6 3.5 0.00 0.00 0.00 51 1013.6
20260507143008 56 293 5.2 7.0 0.00 0.00 0.00 51 1013.5
20260507142503 56 323 4.3 9.6 0.00 0.00 0.00 53 1013.6
20260507142000 54 322 3.5 7.0 0.00 0.00 0.00 54 1013.7
20260507141456 53 262 2.6 7.0 0.00 0.00 0.00 57 1013.6
20260507140953 54 300 7.8 9.6 0.00 0.00 0.00 55 1013.8
20260507140450 56 239 0.0 0.9 0.00 0.00 0.00 55 1013.8
20260507135947 56 295 4.3 7.0 0.00 0.00 0.00 59 1013.7
20260507135444 54 6 3.5 5.2 0.00 0.00 0.00 57 1013.7
20260507134941 53 311 0.0 3.5 0.00 0.00 0.00 58 1013.9
20260507134438 53 27 0.9 7.0 0.00 0.00 0.00 56 1014.0
20260507133934 53 323 2.6 5.2 0.00 0.00 0.00 58 1014.2
20260507133430 54 301 5.2 11.3 0.00 0.00 0.00 55 1013.9
20260507132929 53 239 0.9 5.2 0.00 0.00 0.00 59 1014.2
20260507132424 53 324 5.2 6.1 0.00 0.00 0.00 60 1014.2
20260507131921 52 268 0.9 3.5 0.00 0.00 0.00 62 1014.1
20260507131418 52 331 1.7 2.6 0.00 0.00 0.00 66 1014.2
20260507130915 52 260 0.0 1.7 0.00 0.00 0.00 65 1014.1
20260507130412 52 278 0.9 0.9 0.00 0.00 0.00 67 1014.4
20260507125911 51 278 0.9 0.9 0.00 0.00 0.00 66 1014.5
20260507125409 51 279 0.0 0.0 0.00 0.00 0.00 68 1014.7
20260507124906 51 279 0.9 0.9 0.00 0.00 0.00 72 1014.4
20260507124401 51 289 0.9 1.7 0.00 0.00 0.00 70 1014.6
20260507123900 51 274 0.0 0.0 0.00 0.00 0.00 71 1014.4
20260507123357 51 274 0.0 1.7 0.00 0.00 0.00 69 1014.5
20260507122853 51 287 0.9 0.9 0.00 0.00 0.00 72 1014.5
20260507122349 50 298 0.9 0.9 0.00 0.00 0.00 71 1014.5
20260507121845 50 299 1.7 2.6 0.00 0.00 0.00 73 1014.2
20260507121341 50 350 0.0 0.9 0.00 0.00 0.00 72 1014.2
20260507120837 50 351 0.9 1.7 0.00 0.00 0.00 70 1014.1
20260507120334 50 345 0.0 0.0 0.00 0.00 0.00 70 1014.0
20260507115830 50 352 0.0 0.9 0.00 0.00 0.00 71 1014.1
20260507115326 50 346 0.0 1.7 0.00 0.00 0.00 69 1014.1
20260507114822 50 301 0.0 0.0 0.00 0.00 0.00 71 1014.4
20260507114319 50 301 0.0 0.0 0.00 0.00 0.00 71 1014.4
20260507113817 49 301 0.0 0.0 0.00 0.00 0.00 70 1014.1
20260507113313 49 301 0.0 0.0 0.00 0.00 0.00 68 1014.0
20260507112811 49 352 0.0 0.0 0.00 0.00 0.00 69 1013.9
20260507112308 49 352 0.0 0.9 0.00 0.00 0.00 71 1014.0
20260507111806 49 352 0.0 0.0 0.00 0.00 0.00 67 1014.0
20260507111302 49 352 0.9 1.7 0.00 0.00 0.00 68 1014.1
20260507110758 49 344 0.9 0.9 0.00 0.00 0.00 70 1014.0
20260507110255 49 299 1.7 1.7 0.00 0.00 0.00 71 1013.9
20260507105752 49 274 0.0 0.0 0.00 0.00 0.00 72 1013.9
20260507105247 49 276 0.9 2.6 0.00 0.00 0.00 70 1014.0
20260507104745 49 290 0.9 2.6 0.00 0.00 0.00 71 1013.7
20260507104241 49 302 1.7 2.6 0.00 0.00 0.00 69 1013.6
20260507103738 49 343 0.9 1.7 0.00 0.00 0.00 72 1013.6
20260507103234 49 293 0.9 1.7 0.00 0.00 0.00 73 1013.7
20260507102730 48 293 0.0 0.9 0.00 0.00 0.00 76 1013.4
20260507102227 48 293 0.9 1.7 0.00 0.00 0.00 74 1013.1
20260507101723 49 293 0.0 0.0 0.00 0.00 0.00 75 1013.3
20260507101219 49 315 1.7 1.7 0.00 0.00 0.00 72 1013.3
20260507100716 49 302 0.9 2.6 0.00 0.00 0.00 71 1013.3
20260507100214 49 289 0.0 0.9 0.00 0.00 0.00 75 1013.4
20260507095712 49 314 2.6 3.5 0.00 0.00 0.00 73 1013.1
20260507095208 49 316 2.6 5.2 0.00 0.00 0.00 73 1013.1
20260507094705 49 300 0.9 5.2 0.00 0.00 0.00 73 1013.1
20260507094202 49 277 3.5 3.5 0.00 0.00 0.00 74 1013.1
20260507093654 50 287 0.9 2.6 0.00 0.00 0.00 73 1012.9
20260507093152 50 278 4.3 5.2 0.00 0.00 0.00 73 1012.9
20260507092649 50 298 2.6 3.5 0.00 0.00 0.00 73 1013.0
20260507092145 50 284 3.5 5.2 0.00 0.00 0.00 73 1013.0
20260507091642 50 302 4.3 5.2 0.00 0.00 0.00 72 1012.8
20260507091138 50 270 2.6 5.2 0.00 0.00 0.00 73 1013.0
20260507090634 50 298 2.6 3.5 0.00 0.00 0.00 73 1013.0
20260507090132 50 290 3.5 5.2 0.00 0.00 0.00 74 1012.9
20260507085628 50 282 4.3 6.1 0.00 0.00 0.00 77 1013.1
20260507085125 50 302 3.5 5.2 0.00 0.00 0.00 80 1013.1
20260507084622 51 331 2.6 5.2 0.00 0.00 0.00 83 1013.2
20260507084119 51 321 0.9 1.7 0.00 0.00 0.00 84 1013.0
20260507083615 51 312 2.6 2.6 0.00 0.00 0.00 84 1012.9
20260507083112 51 313 1.7 2.6 0.00 0.00 0.00 83 1013.1
20260507082608 51 22 0.9 0.9 0.00 0.00 0.00 82 1012.8
20260507082104 51 328 0.9 0.9 0.00 0.00 0.00 82 1012.9
20260507081600 51 290 0.0 0.0 0.00 0.00 0.00 81 1013.0
20260507081057 51 321 1.7 1.7 0.00 0.00 0.00 81 1012.8
20260507080553 51 286 0.0 2.6 0.00 0.00 0.00 81 1012.8
20260507080050 51 270 0.9 2.6 0.00 0.00 0.00 82 1012.7
20260507075545 51 227 0.0 1.7 0.00 0.00 0.00 81 1012.7
20260507075041 51 318 1.7 2.6 0.00 0.00 0.00 81 1012.7
20260507074538 51 246 0.0 0.9 0.00 0.00 0.00 81 1012.5
20260507074037 51 279 3.5 5.2 0.00 0.00 0.00 83 1012.5
20260507073533 51 318 0.0 0.0 0.00 0.00 0.00 84 1012.5
20260507073029 51 318 0.0 0.0 0.00 0.00 0.00 83 1012.6
20260507072527 51 318 0.0 0.0 0.00 0.00 0.00 83 1012.3
20260507072024 51 351 0.9 1.7 0.00 0.00 0.00 81 1012.6
20260507071521 51 354 0.0 0.0 0.00 0.00 0.00 82 1012.5
20260507071018 51 354 1.7 1.7 0.00 0.00 0.00 81 1012.4
20260507070515 52 348 0.9 1.7 0.00 0.00 0.00 81 1012.5
20260507070013 52 267 1.7 1.7 0.00 0.00 0.00 81 1012.4
20260507065508 52 265 0.0 0.0 0.00 0.00 0.00 81 1012.6
20260507065005 52 265 0.0 0.0 0.00 0.00 0.00 80 1012.7
20260507064503 52 265 0.0 0.0 0.00 0.00 0.00 82 1012.8
20260507064001 52 265 0.0 0.0 0.00 0.00 0.00 80 1012.6
20260507063458 52 265 0.0 0.0 0.00 0.00 0.00 81 1012.9
20260507062955 52 265 0.0 0.0 0.00 0.00 0.00 80 1012.8
20260507062452 52 265 0.9 0.9 0.00 0.00 0.00 79 1012.9
20260507061949 52 287 0.0 0.9 0.00 0.00 0.00 80 1012.9
20260507061447 52 288 0.0 0.9 0.00 0.00 0.00 80 1012.8
20260507060945 52 277 0.9 0.9 0.00 0.00 0.00 80 1012.9
20260507060442 52 277 0.0 0.9 0.00 0.00 0.00 80 1012.9
20260507055938 52 283 0.0 0.0 0.00 0.00 0.00 79 1013.1
20260507055434 52 257 0.0 2.6 0.00 0.00 0.00 79 1013.1
20260507054931 52 273 1.7 3.5 0.00 0.00 0.00 79 1013.1
20260507054427 52 263 0.9 1.7 0.00 0.00 0.00 79 1013.0
20260507053924 52 295 0.9 2.6 0.00 0.00 0.00 80 1013.2
20260507053422 52 338 2.6 3.5 0.00 0.00 0.00 79 1012.9
20260507052920 52 256 1.7 1.7 0.00 0.00 0.00 80 1013.2
20260507052417 52 247 0.9 1.7 0.00 0.00 0.00 79 1012.9
20260507051909 52 260 0.0 0.9 0.00 0.00 0.00 79 1012.8
20260507051407 53 202 0.9 1.7 0.00 0.00 0.00 78 1012.8
20260507050903 53 246 0.0 0.9 0.00 0.00 0.00 79 1012.3
20260507050359 53 268 0.9 2.6 0.00 0.00 0.00 79 1012.7
20260507045856 53 282 0.0 1.7 0.00 0.00 0.00 80 1012.8
20260507045353 53 243 1.7 2.6 0.00 0.00 0.00 79 1012.7
20260507044851 53 271 0.0 0.0 0.00 0.00 0.00 80 1012.7
20260507044347 53 267 3.5 6.1 0.00 0.00 0.00 79 1012.9
20260507043843 53 243 0.9 1.7 0.00 0.00 0.00 80 1012.6
20260507043340 53 292 1.7 3.5 0.00 0.00 0.00 80 1012.8
20260507042836 53 277 0.9 1.7 0.00 0.00 0.00 81 1012.7
20260507042331 53 228 0.0 0.9 0.00 0.00 0.00 80 1012.8
20260507041828 53 310 0.9 2.6 0.00 0.00 0.00 80 1012.8
20260507041325 53 278 0.9 6.1 0.00 0.00 0.00 81 1013.1
20260507040822 53 299 1.7 2.6 0.00 0.00 0.00 81 1012.5
20260507040318 53 229 0.0 0.0 0.00 0.16 0.16 81 1012.5
20260507035814 53 261 0.0 5.2 0.00 0.16 0.16 81 1012.8
20260507035310 53 279 0.9 2.6 0.00 0.16 0.16 82 1012.7
20260507034808 53 249 1.7 6.1 0.00 0.16 0.16 83 1013.3
20260507034304 53 245 2.6 5.2 0.00 0.16 0.16 83 1013.0
20260507033803 53 313 2.6 6.1 0.00 0.16 0.16 83 1013.0
20260507033300 53 307 0.9 2.6 0.00 0.16 0.16 84 1012.3
20260507032757 53 297 4.3 6.1 0.00 0.16 0.16 85 1012.2
20260507032252 53 282 2.6 3.5 0.00 0.16 0.16 85 1012.7
20260507031749 53 295 0.9 0.9 0.00 0.16 0.16 86 1012.9
20260507031247 53 217 0.0 2.6 0.00 0.16 0.16 86 1012.9
20260507030743 54 300 1.7 2.6 0.00 0.16 0.16 86 1012.8
20260507030240 54 353 2.6 7.8 0.00 0.16 0.16 87 1012.6
20260507025738 54 282 6.1 11.3 0.00 0.16 0.16 86 1012.8
20260507025234 54 287 0.0 3.5 0.00 0.16 0.16 87 1012.7
20260507024733 54 254 1.7 2.6 0.00 0.16 0.16 87 1012.8
20260507024230 54 232 2.6 3.5 0.00 0.16 0.16 86 1012.6
20260507023725 54 297 6.1 7.8 0.00 0.16 0.16 86 1012.4
20260507023222 55 335 2.6 3.5 0.00 0.16 0.16 86 1012.3
20260507022720 55 192 3.5 5.2 0.00 0.16 0.16 86 1012.1
20260507022215 55 344 0.9 6.1 0.00 0.16 0.16 86 1012.2
20260507021712 55 287 3.5 5.2 0.00 0.16 0.16 86 1012.2
20260507021207 55 272 1.7 7.0 0.00 0.16 0.16 85 1012.1
20260507020706 55 282 0.0 2.6 0.00 0.16 0.16 86 1011.9
20260507020202 55 351 0.9 5.2 0.00 0.16 0.16 85 1012.0
20260507015700 55 255 0.9 6.1 0.00 0.16 0.16 85 1012.1
20260507015157 55 199 0.9 3.5 0.00 0.16 0.16 85 1012.0
20260507014653 55 281 0.9 3.5 0.00 0.16 0.16 85 1012.1
20260507014149 56 266 1.7 2.6 0.00 0.16 0.16 85 1012.0
20260507013646 55 243 0.9 1.7 0.00 0.16 0.16 85 1012.0
20260507013143 56 284 0.0 1.7 0.00 0.16 0.16 85 1012.0
20260507012641 56 233 1.7 3.5 0.00 0.16 0.16 84 1012.2
20260507012136 56 291 1.7 3.5 0.00 0.16 0.16 84 1012.1
20260507011635 56 307 2.6 2.6 0.00 0.16 0.16 84 1011.9
20260507011131 56 241 2.6 3.5 0.00 0.16 0.16 84 1012.0
20260507010625 56 328 4.3 5.2 0.00 0.16 0.16 84 1011.8
20260507010122 56 262 0.9 2.6 0.00 0.16 0.16 84 1011.3
20260507005619 56 280 1.7 2.6 0.00 0.16 0.16 84 1011.5
20260507005115 57 286 3.5 5.2 0.00 0.16 0.16 83 1011.7
20260507004612 57 273 2.6 5.2 0.00 0.16 0.16 83 1011.8
20260507004110 57 259 1.7 7.0 0.00 0.16 0.16 83 1011.9
20260507003606 57 287 0.0 2.6 0.00 0.16 0.16 83 1012.2
20260507003101 57 252 4.3 7.0 0.00 0.16 0.16 82 1012.2
20260507002558 57 256 0.0 1.7 0.00 0.16 0.16 83 1012.1
20260507002053 58 279 0.0 1.7 0.00 0.16 0.16 83 1011.9
20260507001550 58 244 3.5 3.5 0.00 0.16 0.16 83 1012.0
20260507001048 58 256 0.0 1.7 0.00 0.16 0.16 83 1012.0
20260507000543 58 181 0.0 1.7 0.00 0.16 0.16 83 1011.8
20260507000039 58 233 1.7 1.7 0.00 0.16 0.16 83 1011.8
20260506235537 58 320 1.7 3.5 0.00 0.16 0.16 82 1011.8
20260506235032 58 272 2.6 5.2 0.00 0.16 0.16 82 1011.5
20260506234530 59 326 2.6 5.2 0.00 0.16 0.16 83 1011.4
20260506234027 59 281 7.0 8.7 0.00 0.16 0.16 83 1011.6
20260506233524 59 236 0.0 2.6 0.00 0.16 0.16 84 1011.6
20260506233021 59 238 0.0 1.7 0.00 0.16 0.16 85 1011.2
20260506232517 59 238 0.9 1.7 0.00 0.16 0.16 84 1010.9
20260506232012 60 244 0.9 1.7 0.00 0.16 0.16 86 1011.0
20260506231510 60 237 0.0 0.9 0.00 0.16 0.16 86 1010.9
20260506231008 60 250 0.9 1.7 0.00 0.16 0.16 85 1010.4
20260506230504 60 248 0.9 1.7 0.00 0.16 0.16 85 1010.5
20260506230001 61 87 0.9 3.5 0.00 0.16 0.16 84 1010.3
20260506225458 61 117 0.9 2.6 0.00 0.16 0.16 83 1010.8
20260506224954 61 227 1.7 6.1 0.00 0.16 0.16 84 1010.6
20260506224451 61 255 0.9 8.7 0.00 0.16 0.16 84 1010.5
20260506223948 61 252 0.9 3.5 0.00 0.16 0.16 84 1010.3
20260506223444 62 250 1.7 2.6 0.00 0.16 0.16 85 1010.5
20260506222936 62 309 0.0 1.7 0.00 0.16 0.16 85 1010.4
20260506222432 62 216 0.9 7.0 0.00 0.16 0.16 85 1010.3
20260506221929 62 298 0.0 2.6 0.00 0.16 0.16 86 1010.2
20260506221426 62 231 0.0 2.6 0.00 0.16 0.16 85 1010.3
20260506220924 62 317 0.9 6.1 0.00 0.16 0.16 84 1010.2
20260506220419 63 193 0.0 5.2 0.00 0.16 0.16 83 1010.3
20260506215916 63 256 1.7 2.6 0.00 0.16 0.16 85 1010.2
20260506215412 63 14 0.0 1.7 0.00 0.16 0.16 85 1009.9
20260506214908 64 210 0.0 2.6 0.00 0.16 0.16 85 1009.7
20260506214405 64 229 0.0 1.7 0.00 0.16 0.16 84 1009.8
20260506213902 64 241 2.6 2.6 0.00 0.16 0.16 84 1009.5
20260506213359 64 317 1.7 2.6 0.00 0.16 0.16 85 1009.5
20260506212852 64 0 0.9 2.6 0.00 0.16 0.16 84 1009.6
20260506212347 65 291 0.9 1.7 0.00 0.16 0.16 84 1009.5
20260506211842 65 285 0.0 0.9 0.00 0.16 0.16 83 1009.3
20260506211339 65 292 1.7 7.0 0.00 0.16 0.16 85 1009.4
20260506210836 64 307 0.0 0.9 0.00 0.16 0.16 86 1009.3
20260506210333 64 249 1.7 2.6 0.00 0.16 0.16 85 1009.5
20260506205830 64 252 1.7 5.2 0.00 0.16 0.16 86 1009.5
20260506205325 64 189 2.6 5.2 0.00 0.16 0.16 86 1009.4
20260506204817 64 299 3.5 6.1 0.00 0.16 0.16 87 1009.3
20260506204314 65 205 0.9 7.0 0.00 0.16 0.16 87 1009.1
20260506203811 66 248 1.7 6.1 0.00 0.16 0.16 84 1008.9
20260506203303 66 278 1.7 5.2 0.00 0.16 0.16 87 1008.8
20260506202800 66 262 0.0 0.0 0.00 0.16 0.16 89 1008.8
20260506202256 66 262 0.0 0.0 0.00 0.16 0.16 89 1008.8
20260506201747 66 262 0.0 0.0 0.00 0.16 0.16 88 1008.7
20260506201244 66 262 0.0 0.9 0.00 0.16 0.16 88 1008.7
20260506200741 66 264 0.0 0.9 0.00 0.16 0.16 88 1008.6
20260506200238 66 310 0.0 0.0 0.00 0.16 0.16 88 1008.6
20260506195734 66 253 0.0 0.0 0.00 0.16 0.16 90 1008.7
20260506195231 66 253 0.0 0.0 0.00 0.16 0.16 90 1008.7
20260506194728 66 254 0.0 0.0 0.00 0.16 0.16 91 1008.6
20260506194224 66 254 0.0 0.9 0.00 0.16 0.16 89 1008.7
20260506193722 66 78 0.0 0.0 0.00 0.16 0.16 88 1008.7
20260506193219 65 109 0.0 0.9 0.00 0.16 0.16 90 1008.6
20260506192715 65 100 0.9 1.7 0.00 0.16 0.16 89 1008.6
20260506192212 65 100 0.0 0.0 0.00 0.16 0.16 92 1008.6
20260506191709 65 100 0.0 0.0 0.00 0.16 0.16 92 1008.6
20260506191205 64 100 0.0 0.0 0.00 0.16 0.16 93 1008.8
20260506190703 64 52 0.0 0.9 0.00 0.16 0.16 93 1009.0
20260506190159 65 35 0.0 0.0 0.00 0.16 0.16 92 1008.8
20260506185656 65 35 0.0 0.0 0.00 0.16 0.16 91 1008.9